Location: Ferchesar
(52.6477°N, 12.4298°E)
Time: 13:10:11
(UTC+02:00)

Transit 4A - Pass Details

Date: 05 March 2021
Orbit: 869 x 975 km, 66.8° (Epoch: 16 April)

Event Time Altitude Azimuth Distance (km) Brightness Sun altitude
Rises 19:40:44 0° 316° (NW) 3,578 11.9 -16.5°
Reaches altitude 10° 19:43:39 10° 305° (NW) 2,612 11.3 -16.9°
Maximum altitude 19:48:33 27° 250° (WSW) 1,675 9.9 -17.6°
Drops below altitude 10° 19:53:21 10° 195° (SSW) 2,543 10.2 -18.3°
Sets 19:56:10 0° 184° (S) 3,465 10.8 -18.8°
